#timestamp,LO_Frequency,Hit,StdDev 
1658044815.1,286046996.5,Y
1658044816.0,286046996.5,P
1658044835.8,286046998.9,N
1658044855.6,286047000.7,N
1658044875.5,286046998.2,N
1658044895.3,286046998.6,N
1658044915.2,286046998.2,N
1658044935.9,286047002.8,N
1658044955.7,286047002.4,N
1658044975.6,286047001.9,N
1658044995.4,286047000.1,N
1658045015.2,286047002.7,N
1658045035.1,286046998.8,N
1658045036.0,286046998.8,N
1658045055.8,286047000.8,N
1658045075.7,286047000.1,N
1658045095.5,286047000.1,N
1658045115.3,286046999.7,N
1658045135.2,286047001.5,N
1658045155.0,286047002.7,N
1658045155.9,286047002.7,N
1658045175.7,286047001.9,N
1658045195.6,286047003.7,N
1658045215.4,286047004.0,N
1658045235.3,286047004.1,N
1658045255.1,286047002.2,N
1658045256.0,286047002.2,N
1658045275.8,286047002.3,N
1658045295.7,286047002.1,N
1658045315.5,286047002.6,N
1658045335.3,286047001.3,N
1658045355.2,286047004.2,N
1658045375.0,286047001.5,N
1658045375.9,286047001.5,N
1658045395.8,286047003.9,N
1658045415.6,286047004.3,N
1658045435.4,286047001.3,N
1658045455.3,286047003.7,N
1658045475.1,286047003.6,N
1658045495.8,286047003.5,N
1658045515.7,286047002.9,N
1658045535.5,286047003.3,N
1658045555.4,286047004.3,N
1658045575.2,286047004.1,N
1658045595.0,286047004.2,Y
1658045595.9,286047004.2,P
1658045615.8,286047001.4,N
1658045635.6,286047002.8,N
1658045655.4,286047000.9,N
1658045675.3,286047000.3,N
1658045695.1,286046998.2,N
1658045715.9,286047001.1,N
1658045735.7,286047000.1,N
1658045755.5,286047002.6,N
1658045775.4,286047000.6,N
1658045795.2,286046998.9,N
1658045815.0,286046999.9,N
1658045815.9,286046999.9,N
1658045835.8,286046999.8,N
1658045855.6,286046999.9,N
1658045875.5,286047002.8,N
1658045895.3,286047000.2,N
1658045915.1,286047000.3,N
1658045935.9,286047000.0,N
1658045955.7,286047000.1,N
1658045975.5,286047001.1,N
1658045995.4,286047000.5,N
1658046015.2,286047000.4,N
1658046035.1,286047000.6,N
1658046036.0,286047000.6,N
1658046055.8,286047000.3,N
1658046075.6,286046998.6,N
1658046095.5,286046998.3,N
1658046115.3,286046998.2,N
1658046135.1,286046997.0,N
1658046155.9,286046999.0,N
1658046175.7,286046998.1,N
1658046195.6,286047000.9,N
1658046215.4,286046999.0,N
1658046235.2,286046998.0,N
1658046255.1,286046997.9,N
1658046256.0,286046997.9,N
1658046275.8,286046997.3,N
1658046295.6,286046997.3,N
1658046315.5,286046996.9,N
1658046335.3,286046997.0,N
1658046355.1,286046997.4,N
1658046375.9,286046997.5,N
1658046395.7,286046998.9,N
1658046415.6,286046997.5,N
1658046435.4,286046998.3,N
1658046455.2,286046999.6,N
1658046475.1,286046998.5,N
1658046476.0,286046998.5,N
1658046495.8,286047001.0,N
1658046515.6,286046998.5,N
1658046535.5,286046997.0,N
1658046555.3,286046997.5,N
1658046575.2,286046993.9,Y
1658046595.9,286046997.9,P
1658046615.7,286046995.7,P
1658046635.6,286046995.5,P
1658046655.4,286046995.6,Y
1658046675.3,286046999.2,P
1658046695.1,286046998.6,N
1658046696.0,286046998.6,N
1658046715.8,286046998.8,N
1658046735.7,286047000.3,N
1658046755.5,286047000.5,N
1658046775.3,286047000.9,N
1658046795.2,286047000.5,N
1658046815.0,286047000.4,N
1658046815.9,286047000.4,N
1658046835.8,286046999.7,N
1658046855.6,286047002.3,N
1658046875.4,286047003.3,N
1658046895.3,286047003.0,N
1658046915.1,286047003.8,N
1658046935.8,286047003.6,N
1658046955.7,286047004.2,N
1658046975.5,286047001.6,N
1658046995.3,286047004.0,N
1658047015.2,286047001.9,N
1658047035.0,286047002.7,N
1658047035.9,286047002.7,N
1658047055.8,286046999.9,N
1658047075.6,286047000.8,N
1658047095.4,286047000.4,N
1658047115.3,286047000.1,N
1658047135.1,286047000.7,N
1658047155.8,286047000.2,N
1658047175.7,286046999.8,N
1658047195.5,286047000.8,N
1658047215.4,286046998.7,N
1658047235.2,286046998.9,N
1658047255.0,286046996.9,N
1658047255.9,286046996.9,N
1658047275.8,286046998.4,N
1658047295.6,286047000.8,N
1658047315.4,286047000.8,N
1658047335.3,286047002.3,N
1658047355.1,286047000.1,N
1658047375.9,286047000.4,N
1658047395.7,286047000.8,N
1658047415.5,286046998.4,N
1658047435.4,286046998.7,N
1658047455.2,286047001.0,N
1658047475.0,286047000.8,N
1658047475.9,286047000.8,N
1658047495.8,286047000.6,N
1658047515.6,286047000.9,N
1658047535.5,286047001.0,N
1658047555.3,286047000.8,N
1658047575.1,286047000.2,N
1658047595.9,286047001.6,N
1658047615.7,286047000.7,N
1658047635.5,286046998.4,N
1658047655.4,286046998.8,N
1658047675.2,286046999.0,N
1658047695.1,286046999.1,N
1658047696.0,286046999.1,N
1658047715.8,286046997.7,N
1658047735.6,286046997.5,N
1658047755.5,286046995.6,Y
1658047775.3,286046994.9,P
1658047795.1,286046997.2,N
1658047815.9,286046996.7,N
1658047835.7,286046997.8,N
1658047855.6,286046997.0,N
1658047875.4,286046997.0,N
1658047895.2,286046997.4,N
1658047915.1,286046997.1,N
1658047916.0,286046997.1,N
1658047935.8,286046994.9,Y
1658047955.6,286046998.5,P
1658047975.5,286046998.1,N
1658047995.3,286046999.4,N
1658048015.2,286046999.9,N
1658048035.9,286047001.0,N
1658048055.7,286046998.6,N
1658048075.6,286046998.1,N
1658048095.4,286047000.1,N
1658048115.2,286047002.6,N
1658048135.1,286047000.9,N
1658048136.0,286047000.9,N
1658048155.8,286047002.6,N
1658048175.7,286047000.3,N
1658048195.5,286047002.2,N
1658048215.3,286047001.9,N
1658048235.2,286047004.4,N
1658048255.0,286047004.2,N
1658048255.9,286047004.2,N
1658048275.8,286047003.8,N
1658048295.6,286047003.5,N
1658048315.4,286047005.9,N
1658048335.3,286047003.1,N
1658048355.1,286047003.3,N
1658048375.8,286047005.6,N
1658048395.7,286047005.7,N
